RH
91 101 108 105 103 102 103 102 93 87 97 106 104 104 104 103 102 102 102 101 103 102 99 100 101 98 91 85 86 85 84 86 89 96 98 96 93 89 82 74 73 76 75 74 70 63 57 51 50 56 58 57 55 56 60 62 62 60 63 76 73 61 60 60 63 75 84 88 88 88 87 83 81 80 79 80 76 69 66 57 43 40 45 44 40
101 104 108 105 100 98 101 103 97 90 98 105 101 100 104 104 100 98 97 97 103 103 99 100 100 99 92 82 81 83 85 89 94 100 98 94 91 86 77 71 72 75 75 73 66 59 52 47 53 62 63 61 61 63 66 66 64 66 67 66 64 62 61 64 74 81 86 90 90 88 84 84 86 84 84 82 72 64 57 45 42 47 46 42 42
101 104 107 104 97 98 104 106 102 99 102 98 91 90 95 99 95 92 93 96 101 103 101 101 101 102 99 92 86 84 86 92 98 100 96 91 85 79 72 68 71 71 72 69 62 55 48 46 57 67 67 68 70 71 71 71 71 73 69 62 62 64 67 74 79 82 84 84 83 83 88 93 91 85 85 78 65 56 47 44 48 49 44 42 43
94 97 106 106 93 94 105 105 100 101 103 95 88 90 91 89 90 93 95 95 99 102 102 101 102 102 102 101 96 93 94 97 99 97 93 89 80 72 67 67 70 68 65 63 59 53 46 50 63 70 72 75 78 78 77 78 79 77 70 64 65 68 74 78 78 81 81 79 82 88 96 100 95 90 85 70 56 48 45 48 51 46 42 40 39
88 87 100 105 90 90 103 101 99 104 104 98 95 99 101 98 97 100 99 98 99 98 96 99 104 104 102 102 101 99 99 98 97 95 89 81 73 65 62 65 68 65 60 58 56 52 50 56 66 74 77 80 85 86 84 83 82 76 68 66 69 72 76 77 84 91 88 84 90 97 101 102 99 93 78 59 48 46 48 51 48 42 38 36 38
81 86 94 96 87 92 104 101 101 107 104 101 103 105 108 107 105 105 106 108 105 98 95 99 103 104 102 103 103 98 95 92 87 84 78 70 64 59 59 63 65 61 58 57 56 55 55 59 69 78 79 85 93 94 91 86 80 74 68 68 73 75 76 84 96 101 96 95 98 103 102 96 92 82 63 49 45 49 53 51 43 37 35 37 40
65 79 89 93 88 90 101 103 102 104 102 101 104 103 102 105 105 107 109 108 101 96 97 99 100 104 104 105 104 97 90 85 76 70 67 64 62 60 61 65 64 61 59 60 62 61 57 61 75 81 81 91 100 99 95 86 78 73 68 71 77 76 79 91 101 102 101 101 101 101 92 81 76 63 47 42 47 53 55 48 39 35 36 39 40
43 55 70 85 90 91 98 102 100 98 100 102 103 99 98 104 105 104 106 101 95 94 96 94 92 99 107 105 100 94 88 81 71 65 64 63 64 65 69 72 70 65 64 68 72 67 61 71 86 86 86 97 103 101 96 85 78 72 68 73 79 77 84 98 103 101 99 92 88 88 78 67 60 46 37 42 52 58 53 44 36 34 38 42 43
33 36 44 58 76 91 96 100 98 97 100 102 102 101 101 105 102 100 104 99 93 94 93 87 80 85 97 99 92 85 80 76 68 64 63 64 66 71 76 79 76 71 74 80 81 72 68 83 94 90 93 102 103 99 91 82 74 68 68 76 80 80 88 97 97 91 79 67 69 72 63 52 44 35 37 48 58 58 49 40 33 30 36 42 45
30 31 32 36 50 70 88 99 95 94 102 104 103 103 102 102 99 100 105 100 93 89 86 81 72 70 78 83 83 77 71 71 69 66 66 65 69 76 80 83 81 80 86 88 86 81 81 92 98 93 96 102 98 90 83 77 70 66 70 79 83 80 79 85 90 82 59 45 54 59 48 39 34 33 42 55 61 55 44 36 29 28 34 40 44
28 28 28 29 32 42 65 87 89 90 99 101 101 104 102 101 101 100 102 102 95 84 78 77 71 65 66 70 74 72 67 70 74 73 71 70 74 81 83 85 87 91 95 91 90 94 96 99 101 98 99 98 91 84 79 74 69 66 72 80 82 75 67 70 76 70 49 34 40 43 35 32 31 35 50 62 62 52 42 33 28 29 35 39 41
27 27 26 26 27 28 38 61 79 85 91 95 99 100 98 98 101 102 103 106 99 83 72 73 79 75 69 73 78 74 70 74 81 82 81 82 86 88 85 85 92 102 102 91 91 102 102 100 103 102 100 96 89 84 78 72 67 66 71 77 77 71 60 52 47 44 38 31 31 31 30 30 32 43 60 67 61 51 41 32 29 31 33 37 40
26 27 26 24 24 24 26 38 54 63 74 91 99 100 100 98 97 99 104 108 102 90 78 71 82 88 85 93 97 83 75 79 88 92 89 91 94 91 84 82 92 107 107 91 90 103 103 102 106 102 96 93 87 81 74 69 68 67 70 74 74 65 50 38 33 31 30 28 27 29 30 31 39 55 69 70 61 52 42 33 33 33 29 31 35
25 26 25 23 23 23 23 26 32 36 46 64 77 92 106 102 92 92 97 98 91 90 91 80 79 86 90 106 109 89 79 85 92 92 89 92 96 89 82 84 94 109 109 94 90 101 102 101 105 99 93 90 83 75 70 68 69 70 72 73 67 53 37 30 30 28 26 27 28 31 32 36 51 67 74 72 64 54 46 38 36 35 31 29 30
24 24 23 24 25 24 22 22 25 25 27 36 42 64 100 109 97 95 97 93 85 88 100 97 91 87 86 101 108 93 87 88 88 90 94 98 98 88 84 90 99 109 109 96 92 100 100 98 101 96 91 87 79 73 70 68 70 72 70 64 52 39 30 28 28 27 26 28 31 34 37 47 64 74 78 76 68 59 51 44 40 36 33 33 32
28 25 23 23 23 22 21 21 23 24 23 25 23 38 86 112 102 99 104 100 92 95 104 102 96 92 89 101 106 94 90 90 86 92 99 99 95 88 87 95 103 109 108 96 91 97 95 91 95 93 88 85 78 73 71 69 71 70 61 48 37 30 29 29 27 26 28 33 37 39 45 59 71 77 83 81 74 66 55 47 43 35 32 37 36
32 28 26 26 25 22 24 22 23 26 22 23 26 35 72 99 87 83 95 97 94 97 102 100 99 97 96 104 107 96 94 94 88 90 93 91 91 87 87 97 106 110 106 93 88 94 92 86 89 92 90 85 77 72 70 69 67 61 48 36 30 29 29 27 26 29 36 41 42 45 56 68 73 78 86 85 78 69 57 49 44 35 34 39 36
33 32 30 30 28 24 25 23 23 28 24 29 39 40 65 93 80 59 60 69 80 90 95 98 102 103 101 105 107 101 100 98 88 85 86 88 91 87 88 99 107 110 105 92 87 93 89 81 84 92 91 82 75 71 67 64 58 46 35 29 28 28 26 27 31 39 46 45 46 56 66 71 74 81 86 85 79 69 58 51 46 39 39 41 36
36 35 35 33 29 26 27 24 23 25 26 35 42 39 62 91 77 46 33 35 49 63 71 79 87 94 102 107 105 98 98 97 89 86 87 88 90 86 89 101 107 109 106 93 87 89 86 80 80 86 87 78 71 66 60 53 44 33 28 28 28 26 26 33 42 49 51 50 57 66 69 70 77 84 88 88 82 69 57 52 47 43 46 46 39
36 36 37 34 30 29 30 27 24 22 22 30 33 31 47 62 51 35 28 24 28 33 38 46 53 64 80 93 95 90 87 85 78 76 77 78 78 76 84 100 106 108 106 91 80 81 84 81 76 77 79 73 65 58 49 41 33 27 28 28 26 27 34 45 53 54 55 60 67 69 70 75 80 88 95 92 80 66 55 51 50 51 55 52 43
35 34 33 31 28 28 29 28 26 23 21 21 22 22 25 29 26 25 25 24 24 23 24 27 29 34 43 54 61 62 59 55 48 46 48 49 49 49 60 81 96 103 100 83 68 71 82 83 73 68 70 66 57 47 38 30 27 27 28 26 27 36 48 55 56 58 62 68 71 70 73 78 80 87 92 84 72 60 52 51 53 59 65 59 50
38 36 36 34 32 31 33 36 35 32 29 24 23 23 20 21 23 22 22 24 24 23 22 23 24 23 25 28 31 32 31 29 26 26 28 27 27 27 32 49 76 93 89 71 56 60 75 78 68 64 63 57 46 36 29 25 26 28 27 28 38 50 57 58 58 61 66 69 71 74 80 83 81 80 77 68 58 51 49 52 57 67 72 63 58
44 39 37 37 36 33 35 41 43 39 35 30 27 25 24 28 30 24 22 23 22 24 23 22 24 23 23 24 23 22 23 22 22 23 23 22 21 22 21 30 52 72 73 61 48 51 63 65 59 56 51 43 36 30 25 25 27 28 29 38 51 58 58 58 60 63 66 68 73 80 87 89 83 73 64 55 50 50 51 53 63 76 74 65 67
51 45 39 36 36 35 34 37 39 39 37 34 31 29 26 30 30 28 34 34 27 27 26 23 26 25 24 26 23 21 22 21 23 24 23 22 20 20 22 24 34 48 55 50 43 45 50 50 49 46 37 33 32 27 24 26 29 31 40 51 57 57 56 58 61 63 66 70 78 86 93 95 87 74 63 56 58 65 65 63 75 81 70 67 75
51 51 45 39 36 35 34 34 35 36 36 35 34 34 32 32 28 32 55 63 46 38 33 24 26 28 25 26 24 21 23 23 24 25 24 22 20 19 22 23 26 33 40 40 38 39 39 40 41 35 29 30 29 25 26 29 33 41 52 58 56 55 57 60 61 63 67 75 84 91 97 99 96 90 81 69 68 78 80 77 82 79 69 73 80
44 49 50 44 39 36 34 34 35 34 35 35 35 36 34 34 32 31 48 53 39 49 57 37 27 31 28 25 24 22 24 24 24 25 24 22 20 20 22 23 24 28 31 32 31 32 33 35 33 29 28 30 27 25 29 34 42 53 59 58 55 56 59 61 62 64 68 78 88 95 99 100 100 102 95 80 76 84 87 84 82 79 77 80 83
39 43 49 48 44 40 36 36 35 35 36 34 34 36 34 34 36 33 38 36 32 61 83 55 31 33 32 27 26 25 26 26 25 25 24 22 21 21 22 23 24 26 27 27 27 29 30 30 29 29 29 28 26 28 34 43 55 62 61 58 56 58 62 63 63 64 67 75 86 96 101 100 101 100 92 81 78 83 86 87 88 88 86 84 83
40 38 42 46 46 43 39 38 37 36 37 35 32 34 34 34 36 35 39 39 34 47 62 49 36 39 37 31 29 29 29 29 28 27 25 24 23 23 24 24 24 26 27 26 27 29 29 29 30 31 28 25 28 34 43 55 64 64 61 59 57 59 63 64 64 64 67 75 88 99 101 100 100 96 86 80 79 82 86 89 88 88 88 84 80
41 38 36 39 43 46 43 40 39 37 37 36 33 32 32 34 36 36 36 38 38 40 42 40 41 42 40 38 35 34 34 33 31 31 29 27 25 25 26 26 25 26 26 26 28 28 29 30 30 29 26 26 34 44 54 64 68 65 61 60 59 61 64 66 65 65 73 87 97 102 101 99 96 89 82 82 84 85 88 89 89 90 87 78 73
38 38 35 35 37 44 47 43 41 39 37 36 35 33 32 32 35 36 35 36 44 51 46 39 40 43 43 43 40 38 39 38 35 34 33 31 29 29 30 29 28 27 26 26 26 28 29 29 29 28 26 30 43 54 61 67 68 65 63 62 62 63 66 68 67 70 84 99 103 101 100 97 92 85 83 86 87 87 92 97 98 90 77 68 70
33 35 34 34 34 39 45 46 43 40 38 36 35 34 34 33 34 33 35 37 43 53 55 45 40 43 43 43 43 43 43 42 39 37 35 34 34 34 34 33 30 28 27 26 25 28 28 28 28 27 27 39 53 59 63 68 68 66 65 63 62 64 68 71 70 73 82 94 101 103 101 96 90 88 90 93 94 96 101 103 94 78 69 69 71
29 33 32 34 37 37 40 44 44 43 41 37 36 37 36 36 36 33 35 39 40 53 66 56 42 42 43 43 44 44 45 45 42 40 39 38 39 40 39 37 33 30 28 26 26 28 28 28 28 27 33 49 60 63 66 68 68 67 66 63 61 64 69 74 75 74 76 87 99 103 101 96 92 91 95 100 101 101 103 99 83 69 66 67 60
24 29 32 33 37 38 36 38 41 44 44 39 37 38 37 38 38 35 38 41 41 56 71 60 42 41 43 42 44 45 46 47 45 42 42 42 44 44 43 40 35 32 29 27 28 29 28 29 28 30 42 58 66 68 67 66 67 69 66 61 60 61 67 76 78 75 79 91 99 100 100 99 97 99 101 100 98 100 100 88 69 59 59 55 46
21 25 29 31 35 40 39 38 39 41 44 45 42 40 38 39 38 37 40 41 41 55 70 61 46 42 40 39 43 46 46 46 46 43 43 46 49 49 47 43 38 34 31 29 29 29 29 29 29 37 52 66 72 71 66 65 69 69 64 60 59 61 68 76 77 78 88 99 100 99 101 99 99 100 97 93 95 98 89 72 58 56 53 43 37
19 20 24 30 37 41 41 41 41 40 43 47 47 46 43 40 39 43 49 45 39 48 59 54 46 42 38 37 41 44 45 46 46 45 45 49 53 52 49 46 41 36 33 31 30 30 31 30 33 46 60 70 76 72 65 66 67 64 60 59 59 67 76 79 79 82 93 102 101 99 100 101 98 91 81 79 81 77 68 61 57 52 42 36 45
16 18 21 28 36 41 42 43 42 41 42 43 45 48 46 43 39 41 46 44 38 42 49 48 45 43 37 36 39 43 45 47 47 47 48 51 54 53 51 48 43 38 34 32 31 31 31 32 40 54 65 72 77 73 66 65 63 58 57 57 65 82 92 91 88 89 96 105 105 102 104 102 89 70 60 61 60 55 55 56 49 42 44 58 78
12 17 20 24 31 37 42 45 43 41 41 40 41 43 45 46 43 40 44 46 41 40 41 38 39 42 39 37 40 42 44 47 48 49 49 52 54 53 52 49 44 40 36 34 33 32 32 37 49 61 67 72 76 72 68 66 61 56 55 60 76 96 101 93 89 94 103 105 98 94 98 93 73 56 53 55 50 46 50 51 51 60 76 91 101
10 14 18 22 28 35 42 47 45 43 44 44 41 40 42 45 44 46 56 62 55 50 46 39 35 37 39 42 44 45 46 47 48 49 50 52 54 53 53 52 46 41 38 36 35 34 35 43 56 64 66 70 74 73 70 68 62 57 56 62 75 88 86 79 81 94 105 105 98 95 94 82 64 54 58 63 58 55 62 71 81 93 99 100 102
8 10 15 20 26 32 41 47 46 42 44 47 45 42 42 42 40 42 56 67 63 52 50 57 60 49 40 43 48 49 49 49 48 50 50 51 54 55 54 52 48 42 40 38 36 35 39 49 60 65 65 68 73 73 71 68 63 58 57 59 63 69 72 76 85 97 105 106 103 95 84 74 65 61 70 81 80 80 89 96 99 100 98 95 95
11 9 11 16 21 27 34 44 51 47 44 45 46 44 42 41 39 35 40 60 71 59 49 67 82 65 42 41 48 49 50 50 50 51 51 52 55 56 55 54 49 43 40 40 38 39 45 54 62 66 66 68 73 73 70 66 63 60 58 58 60 66 75 83 90 95 98 98 94 82 74 78 81 79 85 96 98 97 102 103 100 96 90 84 83
13 12 10 11 16 20 22 32 48 52 46 43 44 45 44 42 40 35 33 50 74 71 52 53 62 54 39 38 44 47 49 51 53 54 53 54 57 57 56 55 50 44 42 42 41 43 52 59 65 67 67 68 72 73 69 67 67 66 64 63 67 76 86 93 94 93 93 94 91 83 79 86 94 93 91 93 97 101 104 101 96 88 79 76 81
11 13 12 10 11 16 18 25 38 46 46 44 43 46 47 45 43 42 37 39 52 56 48 42 40 39 38 38 40 44 48 53 57 59 56 56 58 59 58 56 52 46 44 44 44 49 58 65 68 68 67 68 73 76 74 73 75 73 67 68 77 90 100 101 96 94 95 97 96 93 91 95 101 98 89 89 98 105 101 90 83 80 79 84 92
10 11 14 13 11 13 16 21 33 42 44 45 47 47 45 47 49 46 44 51 57 52 45 43 40 38 38 39 39 42 49 57 62 62 59 59 60 60 60 58 52 49 48 46 47 53 61 67 69 70 71 71 74 79 79 76 76 73 70 77 91 100 101 93 86 90 99 101 100 100 101 103 100 88 81 91 104 105 93 81 80 85 92 96 98
10 11 14 14 13 14 12 17 34 47 46 46 50 48 44 48 50 44 50 75 90 76 54 45 44 43 41 40 40 42 48 57 63 64 61 61 61 61 62 59 54 52 51 50 51 56 62 66 70 73 74 72 73 78 78 74 75 76 79 90 98 97 92 86 85 96 105 103 101 101 100 103 99 88 86 97 105 101 94 90 92 96 99 100 100
11 11 14 16 16 15 13 15 25 32 32 35 43 45 45 47 45 45 61 84 95 92 81 63 48 44 45 42 39 41 46 53 60 64 64 62 61 62 64 62 57 55 55 54 54 56 60 67 72 73 72 71 72 76 77 75 78 83 89 96 97 95 97 97 96 102 104 100 101 102 99 102 103 95 92 98 101 100 99 99 100 100 100 100 100
13 10 12 14 15 16 19 21 19 17 20 29 36 39 45 47 39 45 73 90 87 93 105 92 65 49 45 44 41 40 44 50 55 61 65 63 60 63 66 66 62 59 58 57 55 54 60 69 73 72 71 69 70 76 78 75 79 89 97 99 97 97 100 100 99 102 102 99 101 102 101 102 101 94 92 97 99 100 100 99 99 100 100 100 100
17 17 15 12 14 16 17 18 16 14 19 26 30 35 44 46 35 36 66 91 88 86 100 106 91 68 48 42 44 44 44 48 52 57 62 63 61 62 67 70 68 63 60 58 55 54 60 68 71 69 69 67 66 72 76 73 78 93 102 102 100 100 100 99 98 100 102 100 101 103 102 99 93 90 92 96 98 99 100 100 100 100 100 100 100
21 27 26 21 21 21 19 18 15 15 19 21 24 31 37 39 38 37 50 75 89 90 93 101 104 92 67 48 45 47 47 47 49 52 56 59 61 63 68 74 73 67 62 59 56 55 60 65 67 67 67 65 63 68 72 69 73 90 101 103 103 103 101 100 99 100 104 103 101 100 99 93 89 92 97 98 99 100 100 100 101 100 99 100 101
44 40 34 27 25 23 24 23 16 19 33 31 23 28 38 49 64 65 56 65 85 93 93 97 103 105 93 68 49 46 50 50 48 49 51 55 60 63 67 72 73 68 65 61 58 57 60 62 64 65 66 65 63 67 71 70 75 92 104 106 104 103 100 99 100 101 104 103 98 96 96 95 95 99 100 99 100 102 100 100 101 100 99 101 102
73 62 49 39 35 31 28 22 21 44 68 52 23 23 44 68 93 98 82 79 90 93 98 103 100 99 103 91 65 51 50 50 51 51 50 53 58 61 63 67 70 70 68 66 62 62 63 65 65 67 67 64 62 65 70 72 80 93 100 100 102 103 99 98 101 103 102 100 98 98 98 97 98 99 99 99 102 102 100 100 99 99 100 101 102
87 86 75 54 40 41 41 33 32 55 74 56 26 23 42 68 97 106 95 93 97 96 100 107 99 90 98 101 85 67 56 51 51 52 51 52 56 58 60 64 68 69 69 68 67 67 68 69 69 69 68 64 64 66 65 63 71 85 91 93 98 101 101 100 100 101 102 101 100 100 100 98 99 100 100 101 103 101 99 100 100 100 101 101 101
Wind_Speed
65 67 67 65 63 63 61 59 58 58 57 57 58 59 59 60 61 61 61 60 59 56 53 52 52 52 53 52 51 51 51 52 52 51 50 49 49 48 48 48 48 47 46 45 46 46 45 43 42 42 40 37 35 34 32 31 29 28 28 30 35 36 36 37 37 35 34 36 39 41 43 45 46 46 47 50 51 52 53 54 53 50 47 45 44
67 65 66 66 64 63 63 60 59 60 59 60 61 61 61 62 62 63 63 62 61 59 57 55 54 54 54 53 52 52 52 52 51 51 50 50 49 48 48 48 47 47 46 46 47 46 44 42 41 41 39 36 35 34 32 30 29 28 28 32 37 38 38 37 36 36 37 38 40 43 45 46 45 45 49 51 52 52 53 52 49 47 45 44 42
71 66 65 66 63 62 64 63 62 62 62 63 62 61 62 63 63 63 63 63 63 61 59 57 56 55 55 55 54 53 53 52 51 50 50 50 49 48 48 47 47 47 47 47 48 46 44 41 40 41 38 36 36 34 32 30 29 28 30 34 38 39 38 37 36 37 39 40 43 45 45 44 44 47 50 51 52 52 51 49 47 45 44 41 39
74 70 67 66 62 60 62 63 63 64 64 62 62 62 63 63 63 63 64 64 63 63 61 59 57 56 56 56 55 55 54 52 50 49 49 49 49 48 47 47 47 48 48 48 48 46 44 41 40 40 38 37 36 34 32 30 30 31 33 36 38 39 39 38 38 39 40 42 44 43 42 43 46 49 51 52 52 50 48 46 44 42 40 38 37
76 73 70 69 67 64 63 63 64 64 63 62 63 63 64 64 63 63 63 63 63 63 61 60 59 57 55 55 55 54 53 52 50 50 50 49 48 48 47 47 47 48 49 48 47 45 43 40 40 40 38 36 35 33 32 31 32 33 35 37 39 39 40 40 40 39 41 42 41 40 40 43 48 51 52 52 50 47 45 43 40 38 36 36 38
77 75 74 73 72 69 67 66 66 65 63 63 65 66 65 65 63 62 62 63 63 62 60 59 59 57 55 53 53 53 52 51 50 50 49 49 48 48 47 46 46 48 48 46 44 42 40 39 39 39 37 36 34 33 32 32 34 36 37 38 39 40 40 41 39 39 40 39 38 39 43 47 50 51 51 50 47 44 42 39 35 34 35 37 39
79 79 77 75 74 72 69 68 67 66 65 65 67 68 67 65 64 62 63 64 63 61 60 59 59 57 55 54 53 53 52 51 50 49 49 48 48 47 47 45 45 46 45 43 41 39 38 37 39 39 37 35 34 33 33 34 35 37 38 40 40 40 40 38 36 37 37 37 41 44 47 50 52 51 50 47 43 40 38 34 32 34 35 37 39
82 83 81 78 76 74 72 70 68 67 68 67 67 68 67 67 66 64 64 64 63 62 60 60 60 57 56 56 55 54 53 52 51 50 49 48 47 47 46 45 45 45 42 40 39 39 37 37 39 38 36 35 34 34 34 35 37 39 40 41 41 41 40 35 34 37 39 42 47 48 49 51 51 49 46 42 39 36 33 31 31 33 35 37 40
84 86 85 82 79 76 74 73 72 71 70 69 68 70 69 68 67 65 65 65 64 63 61 61 61 58 58 57 56 55 54 52 51 50 49 48 47 46 46 46 46 44 41 40 40 39 38 37 38 37 35 35 35 35 36 36 38 40 41 42 41 41 40 38 38 42 44 46 49 49 50 51 49 46 41 38 35 32 30 31 32 33 35 37 40
85 87 86 83 81 80 77 77 78 77 74 72 71 72 71 69 68 66 66 67 66 65 63 61 60 58 57 56 56 56 54 52 50 50 49 48 46 46 45 46 46 44 42 41 40 39 38 37 37 36 35 36 37 38 38 38 39 41 42 42 42 41 42 42 44 46 46 48 49 50 50 49 45 41 37 35 32 29 28 31 34 34 35 37 39
86 86 86 85 83 83 82 81 81 80 77 73 72 73 72 70 69 68 68 68 67 66 64 61 60 58 57 56 57 57 54 51 50 50 50 48 46 46 45 45 45 43 42 41 40 38 37 36 36 36 37 38 40 40 40 40 41 42 42 43 43 43 44 44 46 48 48 47 48 49 48 46 41 37 34 32 29 27 27 29 33 36 37 38 40
87 87 87 86 85 85 84 83 83 81 78 74 70 71 72 71 70 69 68 68 68 68 64 61 60 60 58 57 58 58 54 51 50 50 49 47 47 46 45 44 43 43 43 41 39 38 38 36 37 38 40 41 41 41 41 41 42 42 43 44 45 46 46 46 46 48 49 47 46 46 45 42 38 35 32 30 28 27 28 28 32 37 38 40 42
89 88 89 88 86 85 83 84 85 84 81 77 73 70 71 72 72 70 69 69 69 68 66 62 60 60 58 57 58 57 53 51 50 50 49 47 47 47 46 44 43 43 44 42 39 39 39 38 39 40 42 42 42 42 43 43 43 43 45 46 47 48 47 45 44 45 46 46 44 42 41 38 35 32 30 28 27 28 29 30 34 38 39 40 43
90 90 90 88 86 85 83 84 85 84 82 80 77 73 71 72 73 72 71 71 69 67 67 64 61 60 58 56 58 57 54 52 51 50 49 48 48 48 46 44 42 43 45 44 41 41 41 40 41 42 43 43 43 44 44 44 44 45 46 47 48 48 46 44 43 42 43 42 41 40 38 35 32 31 29 28 28 29 30 32 35 38 40 41 43
91 92 90 88 88 87 85 83 83 82 81 81 80 76 73 73 74 74 73 72 70 67 67 66 63 62 58 56 58 57 55 54 53 52 50 49 49 48 45 43 42 43 46 46 43 42 43 42 42 44 44 44 45 45 45 45 46 46 47 48 48 47 45 43 42 41 40 39 38 37 35 32 30 30 29 28 30 31 32 34 36 37 40 43 44
92 92 90 90 90 88 85 82 80 80 81 79 79 78 76 74 73 75 75 74 72 69 68 67 65 64 59 57 59 59 57 57 56 53 52 51 50 47 45 43 42 44 47 47 44 44 45 43 43 45 45 45 46 46 47 47 47 48 48 48 47 45 43 42 40 38 37 37 36 35 31 29 30 30 29 30 31 32 33 35 37 38 40 44 46
94 92 90 90 90 87 85 82 80 80 80 79 78 76 76 76 74 75 77 76 73 71 70 68 66 65 61 59 61 60 59 59 58 55 53 51 50 48 45 42 42 45 48 48 45 45 46 44 44 45 46 46 47 48 48 49 49 49 48 47 44 42 41 40 38 36 35 35 34 32 30 29 30 30 29 31 33 34 35 37 38 40 42 44 47
96 93 91 91 90 88 86 85 83 82 80 78 78 76 76 77 76 77 78 77 75 74 73 71 68 66 63 61 63 63 62 62 60 57 54 52 50 48 45 43 43 46 48 48 46 46 46 45 44 45 47 48 49 49 50 50 50 49 47 44 41 40 39 37 36 35 34 33 32 30 29 29 30 30 30 32 34 35 36 38 39 42 44 46 49
97 94 93 91 90 88 87 86 85 84 81 78 78 77 76 76 75 76 77 77 76 75 74 73 71 68 65 64 66 66 65 64 62 59 56 54 53 50 47 44 44 46 49 49 48 47 47 47 46 46 48 50 50 51 51 50 49 47 43 41 39 38 37 35 34 33 33 32 32 30 29 29 30 31 31 33 35 37 38 38 39 43 46 48 51
100 97 96 94 92 89 87 87 86 86 84 82 81 82 81 78 75 74 75 75 75 74 73 72 71 69 67 67 68 68 67 66 64 61 58 57 56 53 50 47 47 48 50 51 50 48 48 48 48 48 49 50 51 51 51 49 47 43 40 38 37 35 34 34 33 32 32 32 31 30 29 30 31 31 32 34 37 39 39 38 40 44 47 49 52
102 99 97 95 92 89 87 86 85 84 84 83 83 83 82 81 78 74 73 73 73 72 71 70 70 70 68 67 68 69 68 67 64 60 59 58 57 55 52 50 49 50 51 53 52 50 48 49 50 49 49 51 51 51 49 46 43 39 37 36 34 33 33 32 31 31 31 31 30 29 29 30 31 31 32 35 38 39 39 38 40 44 48 50 53
103 101 99 96 94 90 87 85 84 84 83 83 82 81 80 78 77 75 73 72 71 71 70 68 68 68 66 66 68 68 67 64 61 58 58 58 56 55 53 51 50 51 52 54 53 51 49 50 51 50 49 50 50 49 46 42 38 36 35 34 32 31 31 31 31 31 30 30 29 28 29 30 30 31 33 35 37 38 39 39 41 44 48 51 53
106 105 103 101 98 95 91 88 87 86 85 84 81 80 78 75 74 73 71 71 71 71 70 68 67 65 64 65 66 65 63 60 57 56 56 56 54 52 51 50 50 51 52 54 53 51 50 50 50 49 49 48 47 46 43 37 35 34 33 31 29 29 30 30 30 30 29 29 29 28 29 29 29 30 33 35 36 38 39 40 41 44 48 51 53
109 108 106 104 101 98 94 91 90 88 87 85 82 79 77 75 73 70 67 68 70 71 71 68 66 65 64 64 64 62 59 57 55 54 55 54 52 50 47 48 49 50 52 53 51 50 49 49 48 48 47 45 45 43 38 34 33 32 30 28 27 28 28 29 29 29 29 29 29 28 29 29 30 31 33 35 37 38 39 40 40 43 48 52 53
111 110 108 107 104 101 97 94 92 90 88 86 82 79 77 75 72 69 67 67 68 69 70 69 67 65 64 64 63 61 58 56 55 54 54 54 52 48 45 45 47 49 50 51 49 48 47 46 46 46 45 43 42 39 35 32 32 30 27 26 26 27 27 28 29 30 30 29 29 29 30 31 31 32 35 37 38 38 39 38 39 44 49 52 54
109 110 110 108 105 102 99 96 94 92 89 87 84 81 78 75 73 71 70 69 68 67 68 68 66 65 64 64 63 60 58 57 56 55 54 54 52 48 44 43 44 46 48 48 46 46 45 44 44 44 43 41 39 36 33 31 29 26 25 26 26 26 27 28 29 30 30 30 30 31 32 32 33 35 37 39 38 38 37 38 41 45 49 53 55
106 108 110 110 107 104 101 98 95 93 91 89 86 83 80 77 74 72 71 70 69 68 67 67 65 63 63 63 61 59 57 57 56 55 54 54 51 47 44 42 42 43 45 45 44 43 43 43 43 42 41 39 36 33 32 29 26 25 25 26 27 27 27 28 29 30 30 30 31 32 33 34 36 39 39 39 39 38 37 39 42 46 50 54 56
105 106 109 110 108 105 102 99 97 95 93 92 88 85 81 79 76 74 73 71 70 69 68 66 65 62 61 61 60 57 56 56 55 54 53 52 49 45 43 42 41 42 44 43 42 42 42 42 41 41 40 36 33 32 31 27 24 25 26 28 28 28 28 28 29 30 30 30 32 33 36 37 39 40 40 39 40 39 39 41 45 49 53 56 57
105 104 105 106 106 105 103 101 99 97 96 93 90 86 82 80 78 76 74 72 70 70 70 68 65 62 60 60 59 56 55 54 53 52 51 50 47 43 41 40 40 42 43 42 40 41 41 40 40 40 37 33 31 31 29 25 25 26 27 29 29 29 29 28 28 29 30 31 32 35 37 38 39 39 40 40 40 41 43 45 48 51 54 57 59
104 102 101 100 102 104 105 104 102 99 97 94 91 87 83 80 79 77 75 72 68 67 69 69 65 62 60 60 59 56 54 54 53 51 50 48 44 41 39 39 40 42 43 42 40 39 40 40 39 38 34 31 31 30 28 26 26 27 29 30 30 30 29 28 28 29 30 31 33 35 37 38 38 39 40 41 43 44 46 47 50 53 56 58 60
101 101 99 97 98 102 104 105 103 101 98 95 91 88 84 81 80 78 75 73 69 66 69 70 66 63 62 60 58 56 54 55 54 51 50 46 43 40 38 39 41 42 43 42 39 38 40 39 38 36 33 31 31 30 28 27 27 28 30 30 31 31 30 29 29 30 30 31 33 35 36 37 37 39 41 42 43 44 46 48 52 55 57 59 59
98 98 98 96 95 97 101 103 103 101 99 96 92 89 87 83 81 78 75 75 72 66 68 71 68 65 63 61 58 56 56 56 55 53 49 45 42 40 39 40 42 42 43 40 38 38 40 38 37 35 32 31 31 30 28 28 28 29 30 31 32 32 31 30 30 30 30 32 33 34 35 37 38 39 40 41 43 45 48 51 54 56 56 56 55
96 96 96 95 93 93 95 98 100 100 99 96 93 91 88 85 83 80 77 76 73 68 69 73 71 66 64 61 59 58 58 58 57 55 50 45 43 42 41 41 42 42 42 39 37 39 40 38 36 34 32 31 31 31 30 29 29 30 30 32 33 33 32 31 31 31 31 31 32 33 35 37 39 40 41 43 46 48 51 52 53 53 52 51 53
94 94 93 92 91 91 90 91 94 96 97 96 94 92 90 87 85 82 79 78 76 72 71 73 72 69 66 63 60 59 60 60 59 56 51 46 44 43 42 42 43 42 41 39 38 39 39 37 36 34 32 31 32 32 30 29 30 30 31 32 33 33 33 33 32 31 31 33 33 34 36 38 40 41 44 47 49 50 51 51 50 48 47 49 53
91 89 89 89 89 89 89 88 88 91 93 95 96 94 92 89 85 82 80 79 78 77 74 74 74 72 68 64 62 62 61 61 60 58 52 48 47 46 44 44 43 43 42 40 39 39 39 38 36 35 33 31 33 33 31 30 31 31 32 33 34 34 34 34 33 33 34 35 36 36 37 39 40 43 46 49 49 49 49 47 45 45 47 51 54
86 85 84 87 88 88 88 87 86 87 89 92 94 95 94 91 88 86 83 78 76 75 75 74 74 74 71 67 65 65 63 62 61 59 54 50 49 48 46 45 44 43 41 40 40 40 40 39 37 35 33 32 34 35 33 32 32 33 33 34 35 35 34 34 35 36 37 38 38 38 38 38 41 44 46 45 44 44 43 43 44 46 48 51 53
81 82 83 85 86 87 88 88 87 86 86 87 90 91 93 92 88 85 84 81 78 75 74 75 74 73 72 70 68 68 66 64 63 60 55 53 52 50 48 47 46 44 41 41 41 41 41 40 38 36 34 34 36 36 34 34 34 34 35 35 36 36 35 36 38 38 39 40 40 40 39 39 42 44 43 41 40 41 41 43 46 48 49 51 53
74 79 83 85 85 87 89 87 86 86 85 84 85 86 88 89 87 81 77 75 73 71 71 73 76 76 75 73 71 71 69 67 65 61 58 56 54 52 50 48 47 44 42 42 43 43 42 41 39 38 36 36 37 36 35 36 36 36 36 36 37 37 37 38 39 40 41 42 42 42 40 39 41 42 40 40 41 41 42 45 47 49 51 52 54
66 74 81 85 86 88 89 84 81 85 86 83 81 82 82 83 84 82 76 69 66 66 66 66 70 76 78 76 75 74 72 69 67 63 60 58 57 54 52 51 49 45 42 43 44 44 44 42 41 40 38 37 37 37 37 38 38 38 39 39 38 38 39 40 40 41 42 42 43 42 40 39 41 41 40 42 43 43 44 46 48 50 52 53 54
60 68 76 82 84 88 89 82 75 79 86 85 82 80 79 77 77 79 78 69 63 66 69 67 69 75 78 77 77 76 74 71 68 66 63 60 58 56 54 52 50 46 43 44 44 45 45 44 43 42 40 38 37 38 38 38 39 40 41 41 41 40 41 42 42 42 41 41 42 41 39 40 43 43 42 44 45 45 46 47 49 51 53 54 56
56 62 69 77 81 84 87 83 74 73 81 86 84 80 77 74 72 71 70 66 61 63 68 71 73 75 76 77 77 77 75 72 70 68 65 62 59 57 55 53 51 47 44 44 46 46 47 46 44 43 41 39 38 38 38 39 40 42 43 43 42 42 43 43 43 42 41 41 41 40 40 42 45 46 45 45 46 47 47 47 49 52 55 57 58
51 57 62 69 76 78 80 82 77 71 77 85 84 80 76 72 68 65 63 63 64 63 63 65 67 69 71 74 76 76 75 73 71 69 66 63 61 58 56 55 52 48 45 46 47 47 47 47 47 45 42 39 37 38 40 40 42 44 45 44 44 44 45 45 43 41 40 39 40 42 43 44 45 47 47 46 47 48 47 47 50 55 58 59 58
46 52 55 61 68 72 76 80 76 70 75 83 83 79 76 70 65 61 57 55 58 60 58 58 58 60 63 67 71 74 74 73 72 71 67 63 62 60 58 57 53 48 47 48 48 49 49 49 48 45 43 40 39 41 42 43 44 46 46 45 44 44 45 42 38 37 37 37 40 42 44 45 45 46 46 46 47 49 49 50 55 58 60 60 59
43 46 50 55 61 66 72 77 75 69 71 80 84 81 76 71 65 58 50 45 46 52 57 57 56 55 58 61 65 69 72 72 72 70 67 65 63 61 59 57 53 50 49 50 50 51 51 49 47 45 44 42 42 43 44 44 45 46 46 44 42 41 40 36 33 33 36 40 44 46 48 49 49 48 47 46 48 50 52 54 57 59 60 60 61
39 43 47 52 57 61 66 72 75 72 72 79 84 81 76 72 65 54 46 43 43 47 53 57 58 56 56 57 60 63 66 70 71 69 68 66 65 62 60 58 55 52 52 52 53 52 50 48 47 46 46 44 43 45 46 45 46 47 47 45 42 39 36 33 34 38 42 46 50 52 52 53 52 49 46 46 49 53 53 54 57 60 61 63 63
34 39 44 49 53 58 62 67 70 71 70 75 79 76 71 70 65 52 43 43 45 46 50 56 59 60 58 56 56 58 61 65 68 69 69 67 65 63 61 59 57 55 55 54 54 52 49 48 48 48 47 45 44 46 48 47 47 48 48 46 43 40 38 37 41 46 48 50 52 53 52 50 48 46 45 47 51 54 54 55 58 61 64 66 65
31 34 39 44 48 53 58 62 64 65 66 69 73 72 65 59 57 53 46 41 41 44 49 53 56 59 60 58 55 56 58 61 65 68 69 68 66 64 62 61 59 58 57 56 54 52 50 50 50 49 48 46 45 47 49 49 48 48 48 45 43 43 43 45 47 49 50 50 51 50 49 49 48 47 48 50 53 54 54 57 60 63 66 66 62
25 26 29 35 40 45 49 53 58 61 62 65 69 68 58 48 47 52 51 45 39 40 47 52 54 56 58 59 58 57 56 58 61 65 67 67 66 64 63 63 62 61 59 57 55 53 52 52 51 49 49 48 46 48 50 49 48 48 47 45 46 47 48 48 49 51 51 51 51 49 49 51 51 51 51 52 53 54 57 60 63 66 67 64 59
15 17 21 26 30 34 38 42 47 50 52 58 65 64 55 46 43 46 48 50 48 46 48 52 55 57 59 61 60 60 58 57 59 62 64 65 66 65 66 66 64 62 60 58 56 54 53 53 52 50 49 49 48 49 50 49 47 47 47 46 46 46 46 46 49 51 53 53 51 51 52 53 52 52 52 53 54 58 61 63 66 67 65 61 59
13 15 19 23 25 27 30 35 40 41 41 49 59 61 55 49 44 43 46 52 54 51 50 53 52 54 60 64 63 62 61 59 59 60 61 62 64 65 67 67 65 62 60 59 57 55 54 54 53 51 51 50 49 50 51 50 48 48 48 47 46 45 45 47 49 51 54 54 53 53 53 51 51 53 54 55 58 61 63 65 66 65 62 59 60
11 14 20 26 27 25 25 30 38 40 40 46 58 64 62 58 56 55 56 57 53 48 50 56 55 51 53 61 65 66 64 62 61 60 59 59 61 64 67 68 66 63 61 60 57 55 55 55 54 53 53 52 51 52 53 51 49 49 49 47 47 47 47 48 50 52 55 57 56 54 52 51 52 54 56 58 60 62 64 65 64 61 58 58 61
Wind_Direction
229 230 231 232 233 234 237 238 237 237 236 235 235 235 236 237 238 240 241 241 240 239 239 241 244 246 248 248 249 251 252 254 256 259 261 263 265 267 269 271 272 273 273 273 274 276 279 284 288 292 294 295 295 296 297 298 298 300 302 299 297 300 300 301 303 301 298 296 298 300 301 303 304 305 309 312 314 316 317 318 319 320 321 322 323
227 228 229 231 231 232 236 239 238 237 236 235 235 236 237 238 239 240 241 242 242 242 241 242 244 247 249 249 250 251 252 254 256 258 260 262 264 267 269 271 271 272 271 272 274 276 280 285 289 292 295 296 296 296 297 297 298 300 299 296 297 299 301 303 303 301 300 301 301 302 303 304 305 308 312 314 316 317 318 319 320 321 322 323 324
226 226 228 230 231 233 235 237 237 236 235 235 237 238 238 239 241 241 242 242 243 243 243 244 245 247 250 251 251 251 252 253 255 257 259 262 264 266 269 270 270 271 271 272 274 278 282 286 289 292 294 296 296 296 296 297 297 297 296 296 297 300 302 303 302 302 303 303 303 304 304 304 306 311 314 315 317 318 319 320 322 322 323 325 327
228 227 227 228 228 230 232 233 234 234 234 236 238 239 240 241 241 242 242 242 243 244 245 246 247 248 250 251 251 251 251 252 254 256 258 261 264 266 268 268 269 270 271 272 274 279 283 286 288 291 293 295 295 295 295 296 296 296 297 298 299 301 303 303 303 304 305 306 305 304 303 305 309 314 315 316 318 319 320 321 322 323 326 329 331
230 228 227 227 226 228 231 230 231 234 237 239 239 239 241 241 241 242 242 243 243 244 245 246 247 248 249 250 251 251 251 251 253 256 258 261 264 266 267 268 268 269 271 273 276 280 283 284 287 289 291 293 293 293 295 296 296 297 299 300 300 302 304 305 305 306 308 308 305 303 304 308 312 314 316 317 318 320 321 322 323 326 330 333 334
230 230 228 228 228 229 230 230 231 235 238 239 238 237 238 240 240 241 242 243 243 243 243 245 246 246 247 249 251 251 252 252 253 256 259 261 264 266 267 268 269 270 272 275 278 280 281 283 286 288 290 290 290 291 293 294 295 297 299 300 301 303 306 308 307 308 309 306 303 303 306 310 312 314 316 317 319 320 322 322 324 328 333 336 338
231 231 229 229 229 229 229 230 231 234 237 238 237 237 237 238 239 239 241 242 242 242 242 243 244 245 246 248 250 251 252 253 255 256 259 262 264 266 268 269 270 271 273 277 279 280 281 284 286 287 288 288 287 288 291 293 295 298 299 300 302 304 307 309 306 306 307 303 303 305 307 310 312 314 316 317 319 321 321 321 325 330 335 340 342
229 231 230 229 229 229 228 229 229 232 235 237 236 237 237 238 238 239 240 242 242 243 242 242 243 243 244 246 248 250 253 255 256 257 259 261 263 266 268 269 270 272 275 278 280 280 282 284 285 285 285 285 285 287 290 293 295 298 299 300 302 304 307 306 300 301 303 303 305 306 307 310 312 314 315 317 319 320 318 319 324 330 337 343 347
228 230 230 228 228 228 228 228 227 228 233 236 237 237 237 237 238 239 240 241 242 242 242 243 243 242 243 246 248 250 253 255 257 258 259 261 263 265 267 268 270 272 276 278 279 280 282 284 284 283 283 283 285 287 291 293 295 297 298 299 302 304 306 303 298 299 302 304 306 306 308 310 312 314 315 317 319 318 316 320 324 329 336 343 348
228 229 230 228 227 227 227 227 227 227 231 235 237 236 236 237 239 239 241 242 242 242 242 242 244 244 243 245 248 251 253 255 257 258 259 261 262 264 266 268 270 273 275 276 278 279 281 281 281 281 281 282 284 288 291 293 294 295 297 299 301 303 305 304 301 302 305 307 307 307 308 310 312 313 314 317 317 313 315 322 327 331 335 342 346
228 229 230 229 227 227 227 227 228 228 230 234 235 235 235 237 238 239 240 242 244 244 243 242 245 247 246 246 249 252 254 255 257 258 259 260 262 263 266 268 271 273 274 275 277 278 278 278 278 279 280 282 285 288 291 292 294 295 297 299 300 304 305 304 304 305 307 308 307 307 308 310 312 313 314 316 313 309 314 323 332 336 337 340 343
227 228 230 230 228 227 227 227 229 228 229 233 236 235 235 236 237 238 239 241 244 245 245 243 244 247 248 249 251 253 254 255 256 257 258 259 261 263 265 268 271 274 274 275 275 274 274 276 278 279 281 283 286 288 290 292 294 295 297 298 300 303 304 303 304 305 305 306 306 306 308 310 311 312 314 313 307 308 313 321 333 339 339 339 340
226 227 229 230 230 229 228 228 229 229 230 233 236 236 236 237 237 238 239 240 242 245 246 245 244 246 248 250 253 254 254 255 256 257 258 259 260 262 265 268 272 274 274 274 274 273 273 276 279 280 282 284 286 288 289 291 293 295 296 297 300 302 303 302 302 301 301 304 305 306 308 310 310 311 313 308 303 306 311 317 328 335 338 339 338
225 226 228 229 230 230 228 228 229 231 231 232 235 237 238 238 238 239 239 240 241 243 246 247 246 246 247 249 252 253 254 254 255 257 258 259 260 262 265 268 271 273 273 274 274 274 275 277 279 281 283 284 286 287 289 290 292 294 295 297 300 301 301 301 299 299 300 303 305 307 309 309 309 311 310 303 300 304 309 315 322 328 335 340 340
227 227 228 228 230 230 229 228 229 231 231 232 234 236 238 239 239 239 239 241 242 242 244 246 247 247 247 248 251 252 253 254 256 257 258 259 260 262 265 268 270 271 271 273 275 275 276 278 279 281 282 283 285 287 289 290 292 294 295 298 300 300 300 299 299 301 303 304 306 308 308 307 308 310 306 300 300 303 308 314 319 323 331 339 342
229 228 227 228 229 230 230 229 229 231 231 232 233 234 237 238 238 238 238 239 241 241 242 244 246 247 247 248 250 252 253 255 256 256 257 258 260 262 264 267 269 269 270 272 274 275 276 277 278 280 281 283 285 287 289 291 292 294 296 298 300 300 300 299 300 303 304 306 307 308 307 306 308 307 303 299 301 303 307 313 317 320 327 334 339
229 229 228 228 229 229 230 229 229 230 231 231 231 232 234 237 238 237 238 238 239 240 241 242 244 246 246 247 250 252 253 254 255 255 256 258 260 261 263 265 266 267 269 271 273 274 275 276 277 279 281 283 285 287 289 291 293 295 297 299 300 299 298 299 302 304 305 306 307 306 305 306 307 306 302 300 301 303 307 312 316 320 325 332 337
230 230 228 228 228 228 228 228 228 228 229 231 231 231 233 236 237 237 238 238 239 239 240 241 242 244 245 246 249 251 252 253 254 255 256 257 258 259 260 262 263 266 268 270 272 273 274 276 277 278 280 283 285 287 289 291 293 295 297 299 298 297 298 300 302 304 305 306 305 304 305 306 306 304 301 300 300 302 307 312 315 319 325 330 335
229 230 230 229 229 228 228 229 228 227 227 228 230 230 232 235 235 237 238 238 239 239 240 241 242 243 244 245 248 250 251 252 254 255 256 256 257 257 258 259 261 264 267 269 270 272 273 275 276 278 280 283 286 288 289 291 292 295 297 297 295 296 298 301 302 303 304 305 303 304 305 306 306 304 301 299 300 302 307 311 314 319 324 329 333
228 229 229 229 229 228 228 229 229 229 228 228 228 229 231 234 235 236 238 238 239 240 241 242 243 244 244 245 248 250 251 253 254 255 255 256 257 257 257 258 260 262 265 267 269 270 272 274 276 278 280 283 286 288 289 290 292 295 295 294 294 296 299 300 301 303 304 304 303 304 305 306 305 304 300 299 301 305 309 311 313 318 323 328 331
228 229 230 231 231 230 229 230 231 231 230 230 230 230 232 234 235 236 237 239 240 241 241 242 243 244 245 246 248 250 252 253 255 256 256 257 257 258 257 256 258 260 263 266 268 270 271 273 276 279 281 284 286 287 288 289 292 293 292 292 294 297 298 299 301 303 303 302 302 303 304 306 306 304 301 301 304 307 310 310 311 316 322 327 330
228 229 230 231 232 231 229 230 231 232 232 231 231 231 232 234 236 236 237 239 240 241 242 242 243 244 245 246 247 249 251 253 255 255 256 256 257 257 257 255 256 258 261 264 267 269 271 273 276 279 282 284 285 285 286 289 291 291 290 291 295 296 297 299 301 302 301 300 300 301 303 304 305 303 302 304 307 308 309 308 309 315 321 326 329
226 227 228 228 229 230 228 227 228 230 231 231 231 231 231 232 234 235 236 238 240 242 242 242 243 243 244 245 247 249 251 252 254 253 254 255 256 256 256 255 254 256 259 263 267 269 271 273 277 280 282 283 283 283 286 288 288 287 288 291 293 295 297 299 300 300 299 298 297 298 300 301 302 303 305 308 310 309 309 308 309 315 322 326 328
225 226 227 228 228 229 228 227 228 229 230 231 231 231 230 230 231 233 235 237 239 241 242 242 242 243 243 245 246 248 250 251 252 252 252 254 255 255 255 254 254 255 259 263 266 269 271 274 277 279 280 280 281 282 285 286 285 285 288 290 292 294 297 299 299 298 297 295 294 294 296 297 299 303 306 310 311 310 309 308 310 316 322 325 326
225 225 226 227 227 228 229 228 229 229 230 231 231 231 230 230 230 230 231 233 235 238 241 241 241 242 243 244 246 248 249 250 250 251 252 254 255 256 255 254 254 256 259 262 266 269 271 274 276 277 277 278 279 281 283 282 281 284 286 288 290 294 297 298 298 297 295 293 291 292 294 295 298 302 305 308 311 310 308 308 311 317 322 324 325
224 225 225 227 227 228 228 228 229 230 230 231 231 231 230 230 229 229 230 232 232 235 239 240 239 241 242 244 246 247 248 249 250 251 252 254 256 256 256 255 255 257 259 262 265 268 270 272 273 274 275 276 277 278 279 278 280 282 283 285 288 292 295 297 297 295 293 291 290 292 294 297 299 301 303 307 310 310 307 307 312 319 322 323 324
224 224 225 226 226 227 228 228 229 230 231 231 231 230 230 230 229 229 230 232 232 233 237 238 238 239 241 243 245 246 246 248 249 250 252 254 256 257 256 255 255 256 259 261 263 266 268 269 270 271 271 273 275 275 274 276 277 279 281 283 287 290 294 296 297 295 292 290 290 292 295 298 299 300 302 306 309 308 305 308 314 319 321 322 323
223 223 224 225 225 226 227 228 229 229 230 231 231 231 230 230 230 229 229 230 232 233 236 237 237 237 239 242 244 245 245 247 248 250 252 254 256 256 255 255 254 255 256 259 261 263 264 266 266 267 268 271 271 271 271 273 274 276 279 282 285 288 291 294 297 296 292 290 291 294 296 298 299 300 303 305 307 307 307 310 315 318 320 321 321
222 222 223 224 225 226 227 228 228 229 230 231 231 231 230 230 230 230 229 230 231 234 236 236 237 237 238 240 243 244 245 246 248 249 251 254 255 255 255 255 254 254 255 256 257 259 261 262 262 264 267 268 267 267 269 269 269 274 279 282 285 287 290 293 296 295 291 291 294 297 299 300 301 303 305 305 306 308 310 312 314 316 318 319 319
222 222 223 224 225 225 226 227 228 229 230 230 231 231 231 230 230 230 230 229 230 233 236 236 236 236 237 239 241 243 244 246 248 249 250 252 254 254 254 253 252 253 254 255 256 257 258 259 260 262 265 265 263 264 265 265 268 274 278 281 285 287 289 292 294 294 293 294 299 301 301 303 305 306 307 307 308 309 311 312 314 316 317 317 318
223 223 223 223 224 225 226 227 228 228 230 230 231 232 232 231 231 231 230 230 230 233 236 236 236 236 237 238 240 242 243 246 248 249 250 252 254 254 253 252 251 252 254 255 255 255 256 257 258 261 262 260 261 263 263 263 268 274 277 281 285 287 289 291 291 292 295 298 301 302 302 304 307 308 309 308 308 309 311 313 315 316 316 316 317
224 224 223 222 223 225 226 227 228 228 229 230 231 231 232 232 231 231 230 229 229 231 236 237 236 236 236 237 239 241 243 246 248 250 251 252 254 254 253 252 252 253 254 255 254 254 255 256 257 259 258 258 260 261 261 263 268 273 277 281 284 286 289 289 288 290 295 299 300 301 303 305 307 307 307 305 306 308 311 313 315 316 316 317 319
225 225 224 223 223 224 226 227 228 229 229 230 231 231 232 232 232 231 230 229 228 229 234 236 236 236 236 237 238 240 242 245 247 249 250 251 253 254 253 253 254 255 256 255 253 253 254 255 255 256 256 256 258 259 259 263 269 272 276 280 284 288 289 287 285 288 294 297 298 299 300 302 304 303 302 303 306 308 311 313 315 315 317 319 321
225 225 225 224 223 224 226 227 228 229 229 230 231 232 232 232 233 232 231 230 228 228 232 235 236 237 237 237 238 239 241 244 246 249 249 250 251 252 253 254 255 256 256 253 251 252 253 254 254 253 254 254 256 257 259 264 268 271 275 280 285 288 289 286 285 287 291 294 295 295 295 297 300 302 304 306 307 308 310 313 314 316 318 321 322
225 226 226 225 224 224 225 226 228 229 229 230 230 231 232 232 232 232 233 232 229 229 231 234 236 238 238 238 238 239 241 243 245 248 248 248 249 250 252 253 254 255 255 253 251 252 253 253 252 251 252 253 254 257 260 264 267 270 274 279 284 288 289 288 286 285 288 291 291 290 292 296 301 305 307 307 307 309 312 313 315 317 319 320 319
224 225 226 225 225 224 225 226 227 227 228 229 230 230 231 232 232 232 233 234 233 231 231 233 236 238 239 239 239 239 240 241 243 246 246 246 247 249 250 252 253 254 254 252 251 251 251 251 250 251 251 251 253 257 260 264 267 271 275 279 284 287 290 290 288 286 286 288 288 290 293 298 304 308 309 309 311 314 315 315 316 317 317 316 316
222 223 224 225 225 225 225 226 226 227 227 229 229 230 231 232 232 233 234 237 237 236 234 235 236 239 240 240 240 240 240 240 241 243 244 244 246 247 249 250 252 252 252 251 250 250 250 250 249 250 250 249 252 256 261 265 269 272 276 280 284 287 290 292 292 289 286 286 287 290 294 299 304 308 310 313 316 317 316 315 315 316 315 314 315
221 220 221 222 223 224 225 226 226 226 226 228 229 230 230 231 231 231 233 236 237 236 236 237 238 239 240 240 240 240 240 239 240 241 241 242 244 246 247 248 250 250 251 251 250 249 249 249 248 249 249 249 252 256 261 265 269 273 277 280 284 286 289 293 295 293 289 287 287 290 295 299 302 305 309 311 314 315 314 314 314 314 314 314 315
223 220 219 220 221 222 224 227 227 226 226 227 228 229 230 231 231 230 230 234 236 236 237 238 238 238 238 238 239 239 239 239 239 240 240 241 242 244 245 246 248 248 249 249 249 248 249 248 247 248 248 249 253 257 261 265 269 273 277 280 283 287 290 294 296 294 291 289 288 291 295 297 298 301 306 308 311 312 311 312 314 314 313 314 315
224 222 220 220 220 221 223 226 227 226 226 227 227 228 229 230 230 229 230 232 235 238 238 237 238 239 238 238 238 239 239 239 239 239 239 239 241 242 243 245 246 247 247 248 248 247 248 248 248 248 249 251 255 259 262 266 270 274 278 282 286 289 292 294 295 294 291 290 290 292 294 293 294 298 303 307 310 312 310 310 312 314 314 315 316
220 222 222 221 221 222 223 224 226 226 226 226 227 228 228 229 230 230 230 228 230 235 235 234 236 239 238 237 238 238 238 238 238 238 238 238 239 241 242 244 245 246 246 246 246 246 247 248 249 249 249 251 256 261 265 268 272 276 279 283 287 290 291 292 292 291 290 290 291 293 293 293 294 297 300 305 311 314 311 310 312 315 316 317 317
218 220 222 223 223 223 224 224 226 228 227 226 227 228 227 228 229 230 230 230 232 236 237 236 237 238 237 236 237 237 238 237 237 237 237 237 238 239 241 242 244 244 244 244 244 245 246 248 249 249 251 253 258 263 267 269 272 276 279 284 288 290 290 289 289 289 289 290 292 294 296 297 297 297 299 303 309 312 311 311 313 316 318 318 318
218 219 220 222 222 223 223 223 227 230 228 225 227 228 227 226 227 228 230 234 238 241 241 240 239 238 236 236 236 236 237 236 236 236 236 236 237 238 239 241 242 242 242 242 243 244 245 247 249 250 252 254 258 262 266 269 272 276 281 287 290 290 288 286 286 286 286 289 293 297 300 301 299 297 299 302 306 308 309 309 312 316 318 318 317
216 216 218 220 220 221 222 221 224 228 227 224 225 227 226 225 224 223 223 229 239 246 245 243 241 239 238 237 236 236 236 235 236 236 235 235 236 237 238 240 241 241 241 241 242 243 244 246 249 250 252 254 257 262 265 268 273 276 281 287 290 289 287 286 286 286 287 291 295 297 300 301 298 296 299 301 303 307 310 310 312 315 317 316 315
217 214 214 217 220 221 222 222 225 228 226 223 223 224 225 224 223 219 215 215 227 243 249 247 243 241 240 239 238 237 237 236 236 236 235 235 235 236 238 239 239 239 239 240 241 242 244 246 248 250 252 254 257 262 265 268 272 275 279 284 287 288 288 288 288 290 291 294 297 297 299 300 298 297 298 299 302 308 312 311 311 313 314 313 313
221 218 216 217 218 220 221 223 226 227 224 224 224 223 223 224 221 216 212 211 217 233 247 251 248 244 241 240 240 239 238 237 236 236 235 235 234 235 236 238 239 238 238 239 241 242 244 246 248 250 252 255 258 261 265 268 270 273 277 282 285 285 285 285 286 288 290 294 297 298 298 298 297 297 299 301 304 309 311 310 310 310 310 311 311
218 219 221 221 221 222 223 225 228 226 223 224 224 222 222 223 221 215 211 209 212 224 238 249 252 249 245 242 242 241 239 238 237 236 235 235 234 234 235 237 238 239 239 239 241 243 243 245 247 249 252 254 256 259 263 267 269 272 277 281 282 281 283 285 286 287 290 293 296 296 295 295 296 298 301 304 306 309 309 308 308 308 308 309 309
212 216 221 224 224 224 226 227 227 224 222 223 223 222 219 219 220 219 215 212 215 222 230 241 252 254 249 244 243 242 241 240 238 237 236 235 234 233 234 236 237 238 239 241 241 242 244 245 247 249 251 253 255 258 262 266 270 274 278 280 280 280 281 285 288 288 289 290 290 291 292 294 296 299 302 303 305 305 304 304 305 305 306 306 306
208 215 220 222 222 223 225 224 220 218 220 222 222 220 215 212 218 223 218 214 217 223 228 238 249 254 252 248 245 243 243 242 241 239 238 236 235 233 234 236 237 238 240 242 243 244 245 247 249 250 252 253 255 258 261 266 270 274 277 280 282 280 280 284 288 288 285 283 283 288 292 294 296 298 298 298 299 299 300 301 302 303 304 304 304
188 200 206 207 208 212 218 218 212 212 220 223 220 215 209 205 210 218 217 213 215 220 226 232 239 247 251 249 246 243 243 243 242 241 240 237 235 234 235 236 237 239 240 242 244 245 247 249 251 252 253 255 256 258 260 264 267 271 275 279 281 280 280 284 287 285 282 281 284 289 293 293 292 292 292 294 296 297 297 299 300 301 302 303 305
178 194 206 205 198 195 204 212 210 210 216 220 217 212 206 202 204 209 211 210 210 214 222 226 227 233 244 248 246 244 243 243 242 242 241 239 237 235 235 237 238 238 240 242 244 246 247 249 251 253 255 256 257 258 260 262 266 269 272 275 278 279 279 280 283 283 282 282 286 289 291 291 290 290 291 293 294 294 296 298 299 300 302 304 306